TECHEDSAT 8 (44032 NORAD) Tracking and Keplerian Element Data

This shows tracking and keplerian element data for the satellite.

Feedback or suggestion? Click here.




ElementValue
Catalog44032
NameTECHEDSAT 8
Epoch Orbit320
Epoch Day51.9587675
Epoch Year2019
RAAN219.0198
Inclination51.6379
Eccentricity0.0003335
Argument of Perigee71.2829
Mean Anonmoly288.8523
Mean Motion15.54537248
Decay Rate0.00016789
L11 44032U 98067PY 19051.95876750 .00016789 00000-0 25646-3 0 9993
L22 44032 51.6379 219.0198 0003335 71.2829 288.8523 15.54537248 3204

Live tracking and technical data element details for TECHEDSAT 8 (NORAD 44032). TECHEDSAT 8 can be tracked NOW for your location showing map with azimuth and elevation plus other details from your city location.

Track the satellite on the map from your city or location and see movement details for azimuth, elevation, latitude, longitude, range, height, and movement on the map or in text.







IsCatalogInMostPopularTable: catalog: 44032, numindb: 8
Update: records affected: 1



GetName: 44032 TECHEDSAT 8

Hit Count: updated at: Thu, 21 Feb 2019 12:13:03 GMT